Wind_Gust
12 12 11 11 11 11 11 10 11 11 10 11 11 11 11 11 11 11 12 14 15 15 16 17 18 18 19 18 19 19 17 24 21 21 24 16 13 10 13 10 9 10 10 17 19 18 19 20 21 19 22 21 24 26 19 23 20 20 24 23 23 23 20 15 17 19 19 19 20 19 21 20 19 19 16 17 15 15 16 14 15 14 14 15 21 20 23 22
12 12 12 12 11 11 11 11 10 11 10 10 10 10 10 11 10 11 12 13 15 16 16 16 18 18 18 18 18 17 21 22 23 22 12 12 12 9 8 9 10 11 12 19 20 19 19 21 21 21 23 25 18 26 18 27 21 24 23 24 24 21 17 15 13 16 17 16 16 17 18 18 19 19 22 23 18 17 18 17 18 18 17 16 17 23 21 18
12 12 12 11 11 11 10 10 11 10 10 11 11 10 10 10 11 11 13 14 14 16 17 17 17 18 18 18 17 14 21 23 22 23 18 9 10 8 7 8 11 10 19 18 15 18 21 18 20 22 23 23 23 22 21 23 23 23 23 23 24 18 17 8 11 12 14 16 15 17 16 18 20 20 23 23 20 17 19 21 20 20 19 19 20 21 21 18
12 11 11 11 11 11 11 11 10 11 11 11 11 10 10 11 12 13 13 14 15 15 16 17 18 18 19 18 16 22 21 22 23 20 20 12 10 8 8 10 10 14 19 19 15 18 16 15 20 23 22 26 22 20 23 23 25 22 26 25 20 15 13 14 14 10 9 11 15 14 16 15 18 16 20 17 17 18 18 19 19 20 20 20 20 21 19 19
12 12 12 12 11 12 12 12 11 10 11 11 11 11 11 11 12 13 13 14 14 15 15 17 17 17 18 18 15 22 18 23 23 20 22 12 10 9 9 9 10 19 19 16 14 16 16 17 18 22 24 26 19 19 23 20 25 14 25 16 15 12 15 16 11 9 9 10 13 14 16 19 16 12 18 15 20 13 15 22 15 12 19 20 20 19 19 19
13 13 12 12 11 11 11 11 11 11 11 11 12 12 12 12 12 12 13 14 15 15 15 16 16 18 19 16 25 21 20 12 21 21 11 11 10 9 9 10 10 19 19 17 18 16 17 18 20 23 24 24 19 24 21 20 19 23 20 16 14 15 16 14 14 11 10 17 12 16 16 15 15 17 15 14 21 17 15 17 14 9 17 20 17 18 18 18
14 14 12 11 11 12 12 12 12 12 11 11 11 12 12 13 13 14 14 15 15 16 16 16 16 18 18 20 26 22 25 14 15 19 15 9 9 10 11 12 13 18 18 18 18 19 18 18 21 19 20 21 18 26 20 18 16 24 21 18 14 11 11 11 15 11 10 12 15 12 15 15 14 17 17 17 15 12 13 8 12 12 16 19 18 16 16 17
14 13 12 12 12 12 12 12 12 12 11 12 12 12 12 12 13 13 14 14 15 16 16 16 16 17 15 23 19 24 26 19 21 20 12 9 15 16 14 18 17 16 17 18 17 19 15 20 21 19 22 22 18 23 16 17 19 23 21 13 13 14 12 12 13 12 10 9 10 10 13 18 14 16 12 17 12 10 10 9 11 13 17 17 15 17 16 16
15 14 13 13 12 12 12 12 12 13 13 12 12 12 13 12 13 13 14 14 15 16 16 16 17 16 13 18 20 22 21 19 16 19 20 17 15 15 17 19 16 16 15 15 14 15 16 18 20 19 16 21 11 20 15 20 23 21 19 13 14 16 14 13 13 11 12 13 11 14 18 12 12 10 18 16 13 11 10 13 14 15 15 18 16 16 16 16
15 14 13 13 13 13 12 12 12 13 13 13 13 13 12 12 12 13 14 15 15 15 16 16 16 15 20 19 20 21 19 15 16 18 17 14 12 12 16 14 14 15 17 14 13 16 19 14 17 13 16 18 15 19 14 22 21 20 12 14 16 14 15 14 16 14 12 12 10 18 17 16 15 16 24 23 16 14 14 15 16 16 14 16 17 16 16 17
15 14 14 13 13 12 12 13 13 13 13 14 13 12 13 12 13 14 15 15 15 15 16 16 14 17 20 21 23 16 11 14 15 16 14 14 13 16 15 11 10 15 16 11 16 11 13 15 10 12 16 19 18 15 18 17 11 14 13 12 12 14 15 15 14 12 15 19 15 15 18 14 14 18 26 19 18 16 16 17 17 18 18 18 17 18 16 17
16 15 14 13 13 13 13 13 13 13 14 14 13 12 13 12 13 14 15 15 15 16 15 14 14 20 21 22 23 19 15 11 13 15 16 15 18 15 8 10 11 15 13 15 14 9 10 15 12 19 19 15 21 14 22 10 17 12 16 18 18 17 21 18 20 17 15 17 14 11 19 20 22 23 20 16 15 16 17 18 18 18 19 18 19 19 19 19
16 16 15 14 13 13 14 14 14 14 14 13 14 14 13 13 14 15 15 16 13 12 13 14 15 19 17 20 17 16 11 12 12 7 11 16 16 13 13 9 13 11 13 14 10 8 10 12 14 18 14 21 14 16 19 14 15 15 18 21 20 20 24 23 19 16 16 13 11 11 24 22 29 24 20 18 17 16 18 19 19 19 18 19 18 18 19 17
17 16 15 15 15 14 14 14 15 14 14 14 14 14 13 12 15 15 15 16 17 17 16 12 17 20 17 14 18 16 9 11 10 14 16 15 15 16 14 14 10 13 9 14 10 11 12 12 14 17 15 17 15 18 20 15 14 24 19 21 23 21 27 27 25 18 18 19 14 15 24 25 21 24 21 17 17 19 19 20 18 20 18 19 19 18 19 18
18 16 16 15 14 15 15 15 15 15 15 15 14 13 11 12 14 15 15 15 16 16 13 11 20 16 19 14 14 14 8 13 15 15 14 15 16 16 17 13 14 11 10 11 11 11 12 12 15 19 19 13 13 17 20 20 20 23 20 24 23 24 17 25 21 20 21 21 17 18 24 27 16 21 21 18 18 18 19 19 19 18 18 16 18 17 18 19
18 17 16 15 15 15 15 15 15 14 14 15 15 14 15 17 16 15 15 15 13 9 17 17 19 21 25 14 17 15 15 18 16 12 11 14 13 16 13 13 9 12 13 12 11 12 15 14 21 14 13 12 19 20 19 22 22 22 22 15 23 23 21 19 23 19 21 13 18 23 22 19 19 22 20 18 19 19 19 19 18 18 17 17 18 17 17 18
20 19 17 17 16 15 15 15 15 14 14 14 15 16 15 16 15 15 14 13 18 18 18 18 12 15 15 21 17 18 16 12 13 15 13 14 13 11 15 14 17 15 11 10 12 14 16 20 11 15 15 18 18 21 22 21 20 23 22 23 19 17 20 17 20 18 19 19 21 24 29 23 18 20 18 19 20 20 20 19 18 18 18 18 19 19 20 18
21 20 18 17 16 16 15 15 15 14 14 13 13 11 13 4 10 9 8 14 19 17 18 21 18 16 23 16 21 15 11 11 12 9 12 15 13 12 14 19 11 13 12 17 15 19 17 20 18 19 17 19 18 21 23 22 22 20 22 19 21 18 18 20 17 23 16 21 21 20 25 23 23 15 18 19 20 20 20 19 19 20 20 20 20 20 19 20
22 21 19 18 17 16 16 15 15 14 14 14 13 8 10 7 17 20 16 18 18 16 17 21 17 16 20 18 15 13 11 13 8 14 16 16 17 14 13 11 13 15 19 19 20 19 19 17 15 19 21 21 21 21 22 20 17 21 17 16 18 17 20 27 14 18 15 18 22 23 25 25 26 21 20 20 20 20 20 19 18 18 20 20 20 20 20 19
23 21 20 19 17 16 16 15 14 14 14 14 17 13 15 15 16 15 22 18 22 18 16 13 16 11 14 13 16 16 12 15 15 15 14 13 15 16 18 17 15 17 16 22 23 15 9 20 20 21 21 23 14 12 13 14 16 15 12 13 17 17 20 12 15 11 9 17 21 21 23 25 23 24 22 22 21 22 23 22 21 21 21 21 21 21 21 20
23 23 21 20 18 17 17 17 15 12 10 18 18 18 16 22 19 15 13 17 11 9 13 8 12 13 15 12 13 16 17 19 15 15 15 15 15 14 21 19 18 20 20 14 9 14 14 21 21 13 19 18 13 7 9 13 11 15 17 18 21 22 22 19 16 13 10 15 22 22 26 27 26 23 24 22 25 25 24 25 25 24 23 23 23 23 22 22
23 22 21 20 19 19 19 17 17 15 15 17 18 18 15 17 15 14 16 16 16 10 10 9 8 14 10 11 9 10 13 14 15 17 14 16 17 22 21 21 19 22 18 13 15 15 21 22 17 15 13 12 7 10 10 13 13 14 20 20 21 22 19 16 10 12 13 15 23 24 27 25 24 25 25 24 23 24 26 26 25 26 26 26 26 25 24 22
24 23 21 20 18 19 19 19 18 16 16 17 15 13 17 14 13 13 15 22 14 13 13 13 17 13 15 10 12 12 16 17 17 18 19 19 17 25 12 22 18 19 15 16 21 18 21 26 16 13 12 9 10 11 12 13 16 16 19 22 22 16 14 18 21 9 12 19 19 19 24 23 20 22 25 27 29 28 23 24 25 25 26 25 23 20 19 20
24 23 22 19 19 18 20 19 21 15 15 15 13 15 13 14 15 13 13 18 14 14 12 11 10 10 12 12 15 15 20 14 16 21 16 20 20 14 20 18 20 19 20 19 20 21 15 21 13 14 11 13 15 13 14 16 20 18 18 20 22 11 16 21 17 11 7 15 17 20 24 29 27 28 30 27 28 27 27 27 27 27 25 23 21 22 21 19
23 22 21 20 19 19 18 20 13 12 9 15 13 12 12 12 12 12 16 15 17 18 12 16 13 16 13 11 13 19 10 10 13 17 14 17 15 12 22 16 22 21 20 20 20 20 19 14 15 12 13 15 14 17 17 17 16 20 20 16 15 14 12 11 11 15 18 19 22 17 23 28 25 29 28 24 30 30 28 28 28 26 27 26 26 24 22 18
23 21 20 18 17 18 17 14 11 11 14 12 16 15 15 14 12 12 17 20 19 21 21 14 13 14 15 18 14 13 11 20 13 13 12 12 16 21 13 22 23 19 22 14 21 25 16 11 10 12 14 15 17 19 17 17 21 12 21 18 11 14 12 12 13 17 21 21 22 17 20 19 15 19 21 19 18 20 20 24 26 27 26 26 25 23 22 21
22 21 18 17 14 17 15 10 15 13 16 15 12 14 16 14 9 10 20 18 15 14 10 22 17 19 18 13 14 12 20 21 14 13 15 12 18 14 20 16 18 16 17 9 14 30 19 15 13 11 14 17 19 22 20 16 19 22 19 14 10 14 15 15 16 19 24 13 18 19 21 20 21 20 19 21 19 19 20 20 22 24 23 23 22 22 20 23
23 19 17 15 12 9 14 19 19 15 17 15 15 16 17 12 10 13 18 14 17 16 10 18 15 14 13 13 11 20 18 15 20 20 11 15 15 16 22 16 18 18 19 15 23 21 13 14 14 16 15 22 22 21 11 19 23 16 11 12 14 15 15 17 19 20 22 16 20 22 20 23 24 20 15 16 19 20 20 21 21 22 22 21 21 22 22 21
20 18 16 13 12 10 15 14 16 17 16 15 15 16 17 9 13 19 17 13 18 17 17 14 14 14 18 15 18 13 14 13 16 18 13 13 17 17 22 16 16 14 12 16 22 15 12 15 16 15 18 22 21 21 15 13 23 11 9 11 15 14 15 17 21 21 21 19 21 21 20 26 21 17 21 18 20 20 21 21 21 21 21 21 22 20 20 21
19 16 15 9 10 13 13 13 12 14 13 14 16 16 11 13 18 13 14 8 11 16 18 17 17 12 12 20 18 15 17 18 9 17 16 17 18 16 18 15 14 15 18 18 23 20 13 9 8 17 21 22 15 10 10 15 15 11 12 17 19 20 21 20 22 23 24 27 27 23 20 24 25 16 15 22 27 16 15 18 20 20 20 20 18 20 21 21
18 14 8 5 12 15 14 14 15 13 13 13 16 17 16 17 18 18 9 13 18 21 15 14 14 15 13 16 18 16 15 12 17 16 21 15 17 18 14 20 15 19 19 18 22 22 20 17 19 23 20 20 12 15 15 16 15 16 20 22 20 22 20 21 22 20 24 27 25 25 23 20 23 21 21 16 16 15 13 15 17 19 21 20 18 21 21 21
15 9 5 13 14 15 14 18 18 15 15 15 15 18 18 18 23 18 9 16 20 16 14 13 11 12 11 9 17 11 13 16 15 19 20 23 18 21 23 20 23 22 24 22 24 22 23 24 18 20 20 22 21 21 22 20 19 22 21 23 24 24 23 27 25 27 29 27 21 17 18 22 30 26 24 13 15 15 15 18 17 19 20 20 21 21 21 21
10 6 6 15 10 10 11 16 15 14 14 15 18 17 20 15 16 11 10 13 13 14 17 14 13 13 13 15 18 11 11 16 16 17 16 15 18 17 19 24 15 17 18 10 15 17 21 23 22 21 19 23 21 25 21 22 23 23 27 23 25 27 26 25 27 27 30 29 26 20 16 28 18 20 21 23 17 17 17 18 15 16 18 18 20 21 23 22
9 9 11 7 11 12 13 13 12 13 14 14 19 18 17 14 13 9 15 12 14 10 10 13 14 16 17 27 10 10 20 13 14 15 15 18 22 19 17 19 15 15 18 14 20 17 19 19 24 20 21 19 27 27 22 17 19 26 23 29 25 27 32 26 27 25 25 22 14 11 14 17 11 11 14 21 20 17 19 21 19 18 18 17 19 20 20 23
8 12 16 10 12 10 11 11 10 10 14 18 19 20 13 17 15 13 12 12 12 11 14 9 20 17 18 21 11 13 15 17 15 15 20 20 19 20 17 18 16 16 14 20 15 19 23 28 15 20 13 17 22 22 23 24 25 24 23 26 29 27 20 33 27 28 28 25 18 19 25 10 21 13 12 12 16 18 19 22 22 22 22 20 20 21 22 20
8 11 16 11 13 12 10 11 9 11 16 19 20 14 16 14 15 15 18 18 12 16 17 21 22 22 23 18 14 14 14 21 13 16 20 20 16 21 16 14 14 14 18 22 15 22 21 26 11 17 12 19 19 18 24 20 27 13 22 32 29 21 25 28 25 28 21 27 39 28 25 30 24 31 27 23 23 23 22 23 24 24 24 21 21 22 22 23
14 12 11 14 15 14 11 11 14 16 18 20 17 15 15 12 13 16 14 16 17 18 20 21 15 15 13 18 12 14 13 14 20 21 23 12 20 18 13 10 12 14 19 20 22 20 23 26 13 16 18 18 20 20 20 19 25 30 30 23 21 22 21 27 31 22 27 32 31 21 24 24 28 33 23 29 29 26 26 25 26 24 23 24 23 22 22 24
9 9 12 18 20 14 13 13 15 17 20 18 14 5 13 20 13 12 13 16 15 13 20 18 18 10 21 22 19 16 11 16 13 19 20 14 21 12 12 15 13 14 11 9 20 15 14 29 26 24 26 24 15 15 24 26 26 32 31 20 27 25 26 24 27 29 31 33 34 26 28 32 32 33 25 24 22 24 25 24 25 26 26 24 23 22 21 21
13 16 12 19 19 15 14 15 16 20 19 19 12 9 12 13 11 11 13 16 13 18 20 15 19 13 16 19 16 16 18 24 16 20 22 15 25 14 14 13 13 9 12 14 20 18 14 22 28 20 25 18 19 22 28 24 22 24 21 30 25 30 33 33 30 26 31 32 28 28 33 38 30 30 26 29 26 23 23 24 25 25 25 24 22 21 21 21
16 21 15 16 19 15 16 16 18 19 19 15 14 14 16 14 10 10 13 13 16 14 14 17 12 18 16 17 17 19 16 18 20 22 19 14 19 17 16 13 20 14 9 13 22 14 19 15 31 23 21 17 30 26 28 26 26 27 29 30 28 34 24 30 29 34 35 35 35 36 38 34 29 22 22 24 27 28 21 23 24 25 24 24 22 19 19 21
8 18 16 16 20 18 18 19 20 15 17 10 13 15 9 13 12 12 10 9 17 14 20 18 18 19 16 18 18 16 19 16 17 21 19 18 18 17 13 15 13 19 17 17 20 17 20 18 26 28 29 32 31 24 24 26 24 23 26 27 23 25 26 30 33 29 38 41 38 36 43 34 26 20 21 21 21 23 25 24 23 22 23 22 21 18 19 20
18 16 16 17 17 17 19 20 12 10 17 14 15 14 12 11 17 15 12 11 12 19 12 14 16 18 19 20 19 17 18 19 20 20 14 20 12 19 17 10 11 17 20 19 19 16 16 18 25 28 30 31 29 28 27 28 29 30 27 31 27 26 30 33 36 32 30 37 34 36 40 37 30 25 27 23 21 24 24 22 22 23 24 23 21 21 20 20
17 13 11 15 15 17 19 19 10 11 12 15 14 14 9 15 15 13 14 12 17 11 15 16 14 13 14 15 14 16 15 22 16 20 19 13 18 17 13 14 14 20 19 23 21 15 5 19 24 32 30 31 32 30 30 29 30 33 34 33 34 38 33 37 38 28 31 26 33 34 41 42 26 21 24 23 21 23 26 25 26 25 21 22 23 22 23 24
12 13 12 16 14 13 17 12 12 8 11 10 10 15 9 16 14 15 16 10 15 11 13 14 14 14 18 12 14 18 15 17 13 16 20 16 18 15 14 12 12 22 21 18 17 19 17 13 22 27 30 29 25 25 30 28 33 33 29 21 21 24 22 22 24 24 32 31 34 36 45 37 24 23 24 24 25 27 28 29 28 30 25 25 26 25 25 25
16 12 9 13 16 14 13 16 14 12 13 13 14 15 14 16 11 11 15 17 10 15 13 17 14 13 14 14 18 17 17 18 23 15 17 16 20 11 14 11 15 19 13 16 10 15 20 20 23 26 26 28 28 20 19 17 17 20 17 20 21 24 25 26 27 26 32 28 32 38 40 30 30 29 30 30 30 31 30 29 28 29 30 30 28 27 27 27
16 11 17 11 16 10 13 10 10 17 11 12 10 16 14 17 13 12 12 17 14 15 17 19 17 15 17 16 18 18 19 17 21 20 19 20 20 24 13 10 14 20 12 10 10 17 23 22 24 27 30 34 32 30 23 24 27 31 26 27 28 26 27 28 30 32 38 30 34 33 35 34 37 36 37 36 34 31 35 34 35 33 31 30 27 29 29 30
14 14 14 16 18 11 11 10 12 12 9 12 13 10 12 13 13 12 14 17 12 11 16 15 15 15 12 15 14 18 17 19 18 20 20 20 21 27 20 18 18 19 11 13 13 20 23 25 24 25 31 37 36 36 32 29 32 31 31 32 34 34 32 31 32 39 30 33 41 33 27 31 32 34 34 36 35 33 33 33 33 33 29 32 32 30 26 33
14 9 10 12 13 12 13 5 16 15 12 12 14 10 15 16 14 13 11 14 13 13 12 11 15 15 14 14 15 19 16 18 17 15 17 20 22 21 27 23 26 13 13 22 17 21 22 28 23 25 30 33 33 36 32 34 31 33 35 36 37 35 33 29 26 34 33 36 41 26 28 30 33 38 41 42 39 38 36 37 36 34 34 35 36 33 31 31
13 9 9 9 14 9 12 16 15 16 18 15 15 12 15 15 15 13 11 13 13 14 15 12 15 18 19 16 13 20 17 20 14 16 20 19 19 21 24 21 22 23 25 26 24 20 23 26 24 26 33 35 35 34 31 32 32 33 35 37 38 36 33 34 36 34 35 30 30 31 28 31 36 41 42 42 37 38 39 36 36 36 36 32 37 35 31 33
17 18 12 8 14 16 9 12 13 14 17 13 8 12 14 13 15 15 12 12 11 14 12 13 17 19 17 18 20 23 18 19 21 20 16 18 20 21 24 22 23 20 21 23 23 16 23 29 17 23 26 32 32 31 32 32 31 37 35 38 38 36 35 35 35 27 31 28 27 28 29 35 39 39 41 40 39 37 39 40 39 37 36 35 36 35 33 31
14 14 13 18 19 10 11 14 15 14 16 15 16 12 10 13 15 12 15 14 17 17 15 17 19 18 20 21 21 21 20 20 20 20 17 18 23 20 24 22 22 23 21 24 20 22 20 25 23 29 31 34 32 28 29 31 31 33 39 38 33 30 29 27 35 22 24 28 24 21 29 40 36 37 35 36 39 39 40 40 39 39 38 39 41 40 41 41
15 10 12 13 18 6 18 11 15 14 16 12 16 14 15 15 12 12 16 18 18 16 15 17 18 20 18 20 20 19 19 18 18 21 23 26 27 29 27 28 25 27 27 29 22 31 27 28 29 26 31 36 34 27 28 23 27 36 41 30 26 33 35 36 37 34 32 27 29 35 35 35 35 33 35 36 38 38 38 37 38 38 39 40 40 40 39 39
Wind_Speed
9 9 9 8 8 8 8 8 8 8 8 8 8 8 8 8 8 9 9 10 11 12 13 13 14 14 15 15 15 15 14 12 11 11 14 0 9 8 10 8 7 8 7 8 10 9 10 11 12 11 10 9 9 11 8 10 8 7 8 8 9 9 9 5 6 7 8 8 8 9 10 10 10 9 6 8 7 6 7 6 7 6 7 7 11 12 13 13
9 9 9 9 9 8 8 8 8 8 8 7 8 8 8 8 8 8 9 10 11 12 13 13 14 14 15 15 15 14 13 12 13 13 2 7 9 8 6 8 7 8 8 10 11 10 10 11 11 11 10 9 8 10 8 8 9 8 8 8 9 8 2 6 3 7 5 4 6 6 9 9 9 10 9 10 9 8 8 8 8 9 8 8 9 13 12 11
9 8 9 8 8 8 8 8 8 8 8 8 8 8 8 8 8 9 10 10 11 12 13 14 14 15 15 14 14 12 12 12 11 13 9 5 9 7 6 6 9 8 10 9 7 9 11 9 10 11 10 10 9 8 8 7 9 10 9 9 9 8 7 0 1 4 5 6 6 7 7 9 11 9 11 11 10 9 9 8 10 10 10 10 11 12 12 11
9 9 8 8 8 8 9 9 8 8 8 8 8 8 8 8 9 10 10 11 12 12 13 14 14 14 15 14 13 12 11 11 11 8 10 10 9 7 7 8 8 9 11 10 7 9 8 7 11 12 10 11 9 9 9 8 9 8 10 9 5 3 3 5 7 1 1 3 6 5 8 6 9 7 8 8 8 8 8 10 10 11 11 11 12 12 11 11
9 9 9 9 8 9 9 9 8 8 8 8 8 9 8 8 9 10 10 11 11 12 12 13 14 13 14 14 13 10 9 9 8 11 13 9 9 8 7 8 8 10 11 8 6 8 7 8 8 11 10 9 8 8 9 9 11 4 12 7 6 4 6 8 2 2 2 3 4 5 7 8 8 2 9 7 9 3 5 12 7 4 11 11 12 12 11 11
10 10 9 9 8 8 9 8 9 8 8 9 9 9 9 9 9 10 10 11 12 12 12 13 13 14 15 13 12 11 8 1 7 9 10 9 8 7 7 8 8 11 10 8 8 7 9 9 10 10 9 11 8 9 9 9 9 8 8 7 5 6 6 5 5 3 3 7 2 6 8 5 7 8 7 6 11 8 7 9 6 2 9 11 10 11 11 11
10 10 9 9 9 9 9 9 9 9 9 9 9 9 9 10 10 10 11 11 12 12 13 13 13 14 14 14 13 11 12 2 6 9 11 7 7 7 8 9 10 9 9 9 9 8 9 9 11 9 9 10 8 10 10 10 7 11 7 9 6 3 1 3 6 4 3 5 7 0 7 4 6 9 8 8 8 5 6 2 5 5 8 11 11 10 10 10
11 10 9 10 10 10 9 9 9 9 9 9 9 10 9 9 10 10 10 11 12 12 13 13 13 14 12 12 8 10 12 6 11 12 9 7 9 9 9 10 9 8 9 9 8 9 7 11 10 9 10 9 7 11 7 8 9 10 9 4 3 6 4 3 4 4 3 2 3 1 5 9 6 4 4 9 5 3 3 1 4 5 8 9 9 10 10 10
12 11 10 10 9 10 10 10 10 10 10 9 10 10 10 10 10 10 11 11 12 13 13 13 13 12 10 8 8 10 7 9 9 11 12 8 8 8 9 9 9 8 7 7 6 7 8 8 10 9 4 10 1 11 7 9 9 10 10 4 6 7 5 4 5 4 5 4 4 6 9 5 4 3 8 8 6 4 3 5 5 7 7 9 9 9 10 10
12 11 10 10 10 10 10 9 9 10 10 10 10 10 10 10 10 11 11 12 12 12 13 13 12 12 11 8 9 8 8 8 8 9 9 7 6 6 9 7 6 7 8 6 5 7 10 4 8 4 8 9 4 9 6 11 5 10 4 3 7 6 6 6 7 7 5 5 3 9 9 7 7 5 8 13 7 7 6 6 8 8 8 8 9 9 9 10
12 11 11 11 10 9 10 10 10 10 10 11 10 10 10 10 10 11 12 12 12 12 12 13 11 12 9 11 10 2 2 6 6 7 7 7 6 8 7 4 3 6 8 3 8 4 6 6 4 3 5 5 7 5 7 5 2 6 3 5 4 5 7 7 7 4 5 8 7 7 9 6 6 8 11 5 10 8 8 8 9 9 9 8 10 10 9 9
13 12 11 11 10 11 10 11 10 10 11 11 11 10 10 10 11 11 12 12 12 13 12 11 11 7 9 10 10 5 7 4 5 6 7 7 8 7 2 4 4 7 5 6 6 3 3 7 4 9 3 4 8 3 10 1 7 3 6 7 9 8 9 10 10 9 7 5 6 3 10 10 11 12 11 7 7 8 8 9 10 10 9 9 10 9 9 9
13 13 12 11 11 10 11 11 11 11 11 11 11 11 10 10 11 12 12 13 10 10 10 11 10 6 8 8 5 8 4 4 4 1 4 7 7 4 6 2 6 4 6 6 3 1 3 4 7 9 6 9 2 1 8 5 6 7 9 9 9 9 10 13 10 7 6 3 4 2 9 9 15 14 10 10 8 8 9 9 10 9 9 9 9 9 9 9
13 13 12 12 12 11 11 11 11 11 11 11 11 11 11 10 12 12 12 13 13 13 12 10 7 8 7 4 7 7 2 3 3 7 8 6 7 7 6 6 3 5 2 6 3 3 5 4 6 8 6 7 2 9 10 5 6 9 9 9 9 8 10 15 12 10 9 9 6 5 9 10 8 15 12 9 9 10 10 10 10 10 9 9 9 8 9 10
14 13 12 12 11 11 11 12 11 12 11 12 11 11 9 10 11 12 12 12 13 13 11 8 8 6 7 3 6 7 5 5 7 7 6 7 8 8 8 5 7 4 3 4 4 3 4 5 7 8 7 5 4 5 8 8 7 9 7 9 9 10 3 14 11 11 9 9 8 8 9 11 3 11 12 9 9 10 10 10 10 9 8 8 9 8 9 10
15 14 13 12 12 12 12 11 11 11 11 11 12 11 12 13 13 12 12 12 11 7 7 8 8 9 11 4 6 9 6 9 7 5 3 6 6 8 6 6 3 5 5 5 3 3 6 6 10 5 2 3 9 7 7 7 8 9 8 7 9 9 5 7 13 10 11 5 8 12 8 7 9 12 11 9 10 10 9 10 10 9 9 8 8 8 8 8
15 15 14 13 13 12 12 11 12 11 11 11 12 12 13 13 12 12 11 11 9 8 6 5 3 6 6 7 6 8 6 4 4 6 5 6 6 3 6 5 7 7 4 2 4 5 7 9 3 5 6 6 6 8 8 8 8 8 8 8 9 7 8 6 10 9 11 9 9 12 12 12 9 10 9 10 10 11 11 10 10 9 8 9 9 9 10 9
16 16 15 14 13 13 12 12 12 11 12 11 10 9 6 3 8 6 5 7 6 6 7 8 7 5 7 5 10 5 4 3 5 2 5 6 6 4 6 8 4 5 5 7 6 9 6 7 6 6 7 8 8 9 9 8 8 6 9 7 9 7 8 9 5 10 6 11 11 10 13 12 12 6 9 10 11 11 11 10 10 11 10 10 10 9 10 10
17 16 15 14 14 13 13 12 12 11 12 11 11 6 7 4 6 8 5 6 6 5 6 7 6 4 6 8 7 5 3 6 2 5 7 7 7 6 5 4 5 7 8 8 8 10 6 6 5 7 8 9 9 8 9 9 8 10 8 5 8 7 8 11 3 8 6 8 9 12 11 12 14 11 10 10 11 11 11 10 9 9 10 11 10 10 10 9
18 17 16 15 14 13 13 13 11 11 11 10 6 4 4 4 5 4 9 8 10 8 7 4 5 1 6 5 7 7 4 7 6 7 6 5 5 6 8 7 7 8 6 9 11 7 2 8 8 8 9 12 8 5 6 7 8 8 5 5 6 7 9 1 6 4 1 6 9 10 13 14 12 13 11 12 12 12 12 13 11 11 10 10 10 10 10 10
18 18 16 16 15 14 14 14 12 10 9 7 9 7 4 8 8 3 1 7 2 2 5 1 4 5 6 4 4 7 7 9 7 6 7 6 8 6 8 8 8 8 8 7 1 6 5 9 8 5 11 11 7 1 4 7 5 8 8 9 9 11 10 9 6 6 2 6 10 11 13 15 15 13 14 12 14 15 14 14 14 13 13 11 13 13 12 11
18 17 17 15 15 15 15 14 14 13 11 7 7 6 6 8 5 4 5 4 8 0 3 2 1 6 2 3 2 3 5 4 6 8 5 7 8 10 10 10 9 9 9 5 5 5 9 9 7 4 6 6 1 2 4 7 7 7 8 9 9 8 9 8 2 5 5 5 9 13 15 13 13 11 12 13 11 12 15 14 14 14 15 13 13 14 14 13
18 18 16 16 14 15 15 15 14 13 5 6 6 4 6 6 5 4 5 8 2 4 5 6 8 5 7 2 3 4 7 8 7 9 8 9 8 12 4 9 8 9 6 7 8 8 8 11 6 4 4 1 1 5 4 7 7 7 7 9 8 4 5 5 10 1 4 5 8 10 12 10 11 12 15 16 16 15 13 15 15 14 15 15 14 11 9 10
18 17 17 15 15 14 15 15 17 9 6 7 4 5 5 5 5 4 5 6 3 5 2 2 2 1 5 1 5 7 10 4 5 11 7 8 8 6 8 8 10 9 8 10 12 9 3 10 6 4 3 4 7 6 7 7 8 9 9 9 9 4 7 9 4 2 1 7 9 10 10 11 12 14 13 14 16 15 15 16 16 15 14 12 11 11 11 11
18 16 15 15 15 15 14 16 6 4 2 7 3 4 4 5 4 4 7 4 4 6 4 7 5 5 4 2 6 8 3 2 4 7 5 8 7 3 10 6 8 8 10 11 11 9 6 6 9 4 5 7 7 8 9 8 6 8 12 9 8 7 6 5 5 7 6 6 10 9 7 10 14 16 14 11 14 16 15 16 17 15 14 14 15 14 13 10
17 16 15 14 14 14 13 6 4 3 6 2 6 6 6 5 3 4 6 5 5 6 7 5 3 5 2 8 5 4 3 6 5 2 3 3 8 9 2 8 7 7 13 6 8 7 4 3 3 3 6 6 9 9 9 9 9 4 7 10 5 7 6 5 6 7 8 8 7 8 7 5 4 8 11 9 8 10 10 13 15 14 14 14 13 12 11 11
18 16 14 13 11 13 6 2 6 5 6 5 3 5 7 5 1 2 5 4 3 3 2 7 5 6 5 5 6 4 8 8 4 5 7 4 9 6 9 5 7 5 7 1 3 9 8 6 4 5 5 8 8 10 10 8 7 8 10 7 4 6 8 8 8 9 9 5 9 10 7 6 7 5 9 12 10 10 11 11 12 13 14 13 12 12 12 12
17 14 13 11 10 7 5 7 9 5 7 6 6 6 7 4 1 3 3 3 5 5 2 6 5 2 5 6 4 8 8 5 8 9 4 7 7 7 10 7 7 9 10 4 9 8 5 6 6 8 8 8 9 10 4 11 8 2 2 0 6 8 8 9 8 8 9 7 6 8 11 7 8 8 1 7 9 11 11 11 11 11 12 12 12 11 12 13
15 14 12 10 10 8 6 5 7 6 6 6 5 6 6 2 5 5 3 3 4 2 2 3 1 5 8 6 9 5 5 5 5 8 5 4 8 7 8 7 8 6 3 8 9 6 4 7 8 8 8 8 9 12 7 7 10 3 3 2 7 5 7 9 9 9 9 7 9 10 9 9 8 7 8 9 9 10 10 11 12 12 12 11 11 11 11 11
15 13 11 7 5 5 4 5 4 5 5 5 7 7 4 5 5 4 3 3 2 5 6 5 7 2 3 9 8 7 8 8 1 7 7 6 9 8 7 7 5 7 8 8 12 9 2 3 2 7 9 11 5 1 1 5 8 5 5 8 8 9 9 8 9 9 9 11 12 14 11 11 8 6 6 8 11 7 6 8 9 11 11 11 10 11 11 11
14 10 5 3 3 4 4 4 6 5 5 5 7 9 6 5 5 4 4 4 5 7 4 5 3 5 5 7 5 7 7 4 8 6 9 6 8 9 5 8 5 7 7 8 10 11 10 8 8 8 10 9 4 6 7 8 7 7 7 8 8 9 8 9 8 8 8 9 12 14 13 10 9 8 8 5 7 6 5 7 8 10 11 10 10 10 11 12
11 7 3 5 5 5 4 6 8 6 5 7 7 7 5 5 6 5 3 4 9 6 5 3 3 3 3 2 8 2 3 7 6 7 8 9 7 8 9 7 7 7 9 9 10 11 11 11 8 10 10 13 9 9 9 9 9 9 9 9 10 8 6 9 9 10 11 9 10 9 6 8 13 12 12 2 7 6 7 8 7 10 10 11 10 11 10 10
8 5 2 7 5 2 3 6 6 5 7 7 7 6 7 4 6 2 0 3 1 3 4 5 3 4 5 5 8 4 3 6 6 8 7 6 7 8 10 11 6 5 6 2 6 6 8 12 13 11 10 11 10 9 7 8 9 10 11 9 10 9 9 10 11 8 11 14 15 8 7 11 8 8 9 11 8 9 8 9 8 8 10 10 10 11 12 11
7 6 3 1 3 3 4 5 3 6 7 6 7 6 6 5 3 4 6 3 4 2 3 5 5 8 8 10 1 3 7 5 6 4 5 7 9 8 6 10 7 7 7 6 7 6 7 7 10 10 8 8 12 12 11 8 7 11 11 12 10 10 9 10 9 9 9 6 5 1 4 4 5 1 4 10 11 8 10 10 10 9 9 9 10 10 11 13
6 6 8 3 4 1 3 3 3 4 6 7 7 7 4 6 5 4 3 2 3 3 6 2 9 8 8 10 3 5 6 3 7 7 8 8 7 8 7 7 9 7 6 8 6 5 12 11 2 9 4 8 12 12 12 13 12 10 10 10 12 10 7 13 10 12 11 9 6 7 6 3 7 5 3 4 6 9 10 12 13 13 12 11 10 11 11 10
5 3 6 1 3 3 2 3 3 4 6 7 7 4 5 5 5 4 5 7 4 6 8 11 12 10 9 7 6 6 6 9 5 5 8 9 7 9 7 5 5 6 8 7 5 8 7 8 4 8 4 9 10 8 11 9 10 2 6 12 12 10 12 9 10 15 13 10 14 8 8 11 10 15 15 13 12 12 12 13 13 14 14 12 11 11 12 12
4 4 2 4 5 4 3 4 5 7 7 8 5 5 5 3 5 7 5 7 8 9 9 9 4 4 5 6 3 5 4 5 9 8 8 4 7 8 5 3 4 6 10 8 8 8 10 10 5 7 10 9 11 11 11 9 11 10 11 9 9 11 10 8 11 6 9 13 9 8 10 11 12 9 6 16 17 15 14 13 13 13 13 14 12 11 11 12
2 1 3 6 8 4 4 5 7 7 8 7 5 3 4 8 5 4 5 7 6 4 7 6 4 1 8 9 7 7 3 5 4 6 9 4 5 2 4 5 5 6 3 2 6 4 4 10 10 14 15 13 8 6 12 14 15 14 14 9 10 6 11 9 7 12 11 11 10 10 15 14 14 13 10 13 12 12 13 14 13 14 14 13 13 13 12 12
5 5 2 8 7 5 5 7 6 8 7 7 3 3 3 4 3 4 5 7 5 8 7 6 7 4 6 7 7 7 8 9 7 8 8 4 9 3 5 4 4 0 5 6 7 6 5 8 9 9 13 8 9 8 11 10 12 14 11 13 11 11 12 12 8 10 9 13 11 12 16 13 12 11 12 15 16 11 12 12 13 15 14 13 11 11 11 10
6 6 3 7 7 6 6 7 7 7 6 5 5 4 5 5 2 2 4 5 5 4 4 8 4 7 6 8 8 7 7 9 8 8 8 4 7 8 6 4 8 6 2 4 9 6 5 4 11 8 11 8 10 8 12 11 11 9 11 12 9 10 10 11 9 11 12 10 11 12 13 11 11 10 11 12 14 17 13 13 13 14 14 14 13 10 9 9
2 5 5 6 8 7 7 7 7 5 6 1 4 6 1 3 2 2 3 2 7 6 8 8 7 7 7 7 7 7 7 6 6 7 7 7 6 3 3 5 5 9 8 7 9 5 5 6 10 11 10 12 12 11 14 14 12 9 9 11 10 9 10 12 13 11 13 12 11 11 14 12 11 7 9 11 10 11 12 14 12 12 13 12 11 11 10 10
7 4 5 8 8 8 7 8 2 2 5 4 5 3 3 5 7 7 4 3 5 6 4 5 7 8 8 8 8 7 7 7 8 8 5 8 3 8 7 3 2 8 7 6 7 7 5 5 9 11 11 13 15 16 16 16 16 16 12 13 12 11 10 10 13 12 12 12 15 14 14 14 12 13 14 12 10 13 14 13 12 8 11 13 11 11 11 11
5 4 4 6 7 8 7 7 0 2 4 5 6 6 1 5 6 2 4 4 6 3 5 6 6 5 6 6 6 6 6 7 6 8 9 5 7 8 6 5 6 7 8 7 9 4 1 4 8 13 14 16 19 18 18 18 17 18 17 16 14 15 15 14 14 11 11 12 11 11 13 12 12 10 11 12 12 10 10 12 14 14 11 10 12 11 13 13
3 4 2 5 6 5 6 4 3 2 3 2 3 7 1 6 5 6 6 3 4 3 4 5 6 6 8 4 5 8 6 5 5 7 8 8 4 7 6 3 5 5 8 6 6 6 4 3 7 10 9 10 11 11 13 14 14 12 10 9 10 11 11 11 11 9 10 13 17 14 15 11 8 9 11 11 13 15 16 14 14 17 14 13 15 14 13 14
5 3 1 3 5 5 4 5 5 3 5 5 6 7 5 6 3 3 6 8 2 6 5 6 5 5 4 6 7 7 8 8 7 6 9 8 7 2 5 2 5 9 4 8 6 5 7 8 8 9 10 11 10 7 6 5 6 5 7 9 10 12 14 11 10 10 12 14 17 12 13 12 14 16 17 18 16 16 17 17 16 14 17 15 15 14 14 15
4 3 5 3 4 1 2 2 1 6 4 5 5 7 6 7 4 5 5 7 6 7 6 8 8 7 8 8 9 8 9 9 9 6 7 7 8 9 4 3 3 10 4 4 4 7 7 9 10 11 12 14 14 13 12 11 11 12 13 15 15 15 15 15 13 12 14 13 14 14 15 15 19 19 20 18 18 19 19 19 20 15 15 16 16 15 15 17
4 3 3 4 6 3 3 0 3 3 2 4 3 2 4 5 5 3 7 5 3 3 6 6 6 6 4 6 7 8 9 10 9 10 10 10 10 11 12 10 6 10 8 5 7 6 8 9 13 15 19 20 22 22 20 17 17 17 19 19 19 21 20 19 14 16 15 14 17 13 16 15 16 19 20 21 18 19 18 18 18 19 13 17 16 14 15 19
3 2 2 3 4 3 4 0 6 6 4 4 5 2 7 8 6 5 3 6 5 5 4 3 6 7 6 7 7 7 8 9 8 6 8 10 10 11 10 12 14 7 6 9 9 8 8 10 13 15 19 20 21 21 19 18 18 19 22 21 23 22 21 18 15 20 19 15 18 15 18 16 17 22 24 24 23 22 21 21 21 21 19 18 17 19 17 14
3 2 1 2 4 2 3 7 7 7 8 6 5 4 7 7 7 5 3 5 4 5 6 5 7 9 10 8 6 8 9 8 6 8 9 9 11 10 9 11 12 13 12 12 11 7 7 11 14 14 19 21 22 21 19 20 18 19 21 24 25 24 22 22 23 22 22 18 17 17 18 19 20 22 25 25 23 22 21 20 20 21 22 19 19 22 17 19
5 6 2 2 6 6 2 4 5 5 7 5 2 5 5 5 7 7 4 4 3 6 5 6 8 10 9 10 10 10 10 11 12 10 9 11 10 9 11 11 10 10 10 10 9 9 8 10 10 12 13 17 20 17 18 19 19 21 22 25 25 22 22 22 22 16 20 15 15 17 17 17 19 22 23 24 22 19 19 22 24 23 22 22 20 20 20 19
4 4 3 6 7 2 3 5 5 5 5 5 6 4 3 5 7 4 6 5 8 7 7 9 10 10 10 11 12 12 12 11 11 12 10 9 10 9 10 8 11 11 11 10 8 9 8 10 11 13 13 16 17 16 16 19 20 21 24 25 21 19 16 14 13 9 11 14 14 12 15 16 16 20 20 20 21 22 22 22 22 21 22 23 23 23 23 20
5 2 4 4 5 1 6 3 6 4 5 2 6 5 5 7 4 4 5 8 9 7 7 8 9 9 9 11 12 10 11 10 9 12 12 13 14 15 14 14 13 13 11 13 11 12 11 10 11 11 14 16 19 16 17 13 13 17 23 16 13 20 20 20 20 21 19 16 15 17 17 16 17 17 19 19 21 23 23 21 20 21 22 24 25 25 24 22
Wind_Direction
318 320 319 315 318 314 307 304 303 300 299 304 298 291 289 285 284 280 282 285 287 289 296 300 303 305 307 308 309 311 314 291 275 224 224 150 92 104 100 125 136 149 179 217 222 227 215 218 215 210 212 215 210 232 203 204 239 223 226 244 235 244 237 228 218 204 32 123 129 176 160 177 177 171 151 195 212 126 152 161 107 117 88 101 103 109 113 123
325 323 322 315 314 312 304 297 295 298 292 291 293 290 288 287 284 285 283 286 290 294 298 301 302 304 305 305 309 312 309 287 260 243 221 107 97 94 113 125 156 171 203 226 230 210 224 205 211 196 213 214 181 226 172 203 222 221 223 234 248 221 3 7 56 17 140 172 150 168 180 183 167 184 150 205 175 161 174 162 165 142 125 119 127 121 124 133
326 318 312 310 304 304 303 301 297 294 293 288 288 287 288 290 285 289 289 291 292 297 297 299 303 303 303 306 307 308 293 280 249 240 125 113 99 132 152 157 181 185 217 238 231 226 219 196 203 199 207 223 181 205 179 186 201 224 245 218 238 268 78 98 36 39 312 53 135 148 166 222 146 195 138 223 168 185 199 166 183 177 156 153 143 136 136 139
327 317 313 311 307 304 309 308 307 293 290 291 292 293 287 283 284 286 289 290 294 297 298 299 301 305 304 304 311 306 282 270 257 127 112 120 143 157 173 183 200 206 238 250 261 245 245 251 199 207 200 238 170 227 183 176 211 187 238 240 267 210 179 148 232 26 274 250 144 184 156 222 130 195 176 215 199 193 225 181 189 192 160 149 145 138 143 148
322 322 318 319 319 305 303 302 296 294 292 291 291 286 288 286 284 284 288 291 291 295 299 300 302 305 305 305 299 285 278 261 109 108 110 132 157 175 189 193 213 232 235 256 239 238 227 223 206 206 233 219 199 205 230 183 225 238 222 258 350 27 262 91 102 70 201 320 207 158 170 204 168 184 215 211 226 182 259 175 135 88 137 141 146 144 153 155
327 325 322 315 306 300 298 297 299 299 298 288 283 284 286 288 289 290 291 294 294 297 301 304 304 304 307 307 297 267 253 13 106 114 112 140 168 180 190 208 215 252 259 241 225 195 208 214 204 207 216 245 186 213 200 227 187 242 213 268 263 343 354 111 120 115 216 196 235 181 209 138 175 211 212 223 235 66 70 48 104 109 130 140 142 150 158 159
328 327 316 311 309 306 304 301 297 296 290 288 289 286 285 286 285 288 289 290 295 299 300 303 306 307 310 298 267 247 240 104 163 117 109 154 177 183 199 209 213 237 237 228 219 203 209 208 214 201 223 234 202 222 197 202 190 254 270 193 202 232 271 108 108 150 233 196 211 356 59 202 189 233 183 230 236 83 32 10 84 108 123 133 146 159 160 163
327 321 318 314 310 304 299 295 290 290 291 291 288 290 285 284 288 288 289 292 295 295 301 302 306 308 324 306 246 221 233 124 112 125 127 150 194 193 198 216 208 218 227 228 200 212 199 222 203 210 239 234 161 223 134 213 198 233 243 138 135 221 101 156 135 186 168 236 337 213 217 230 204 270 118 221 229 78 127 175 161 132 140 143 157 161 160 167
328 323 320 312 306 303 306 299 294 295 293 287 289 288 290 290 290 294 293 292 292 296 298 304 306 310 303 281 275 262 116 98 124 134 148 183 196 187 205 198 202 219 224 232 245 260 231 204 239 228 214 224 106 217 135 230 202 225 255 178 142 214 175 163 181 188 195 199 211 218 231 223 240 337 243 244 181 155 139 211 170 175 158 154 166 162 165 163
332 327 318 315 312 306 300 296 293 290 292 292 290 291 290 292 291 291 291 291 292 296 298 302 308 314 293 257 257 251 93 109 136 153 165 194 182 199 210 257 172 222 229 202 224 224 223 300 241 210 282 287 134 225 175 220 350 188 222 184 204 183 180 181 217 187 198 237 174 243 233 219 202 217 235 227 161 169 191 193 188 171 173 164 159 164 169 160
332 327 325 318 313 308 303 302 299 293 291 293 292 288 290 292 291 288 288 289 292 292 296 300 311 308 283 257 265 307 122 154 146 161 162 199 211 210 203 199 231 247 259 195 250 243 341 274 274 294 246 265 186 197 206 236 113 237 212 194 182 178 209 182 230 180 203 208 210 248 255 240 201 222 252 187 151 174 198 196 182 181 179 170 164 165 165 165
334 330 326 322 316 310 305 300 299 295 292 291 291 288 289 290 286 282 285 288 290 292 292 296 305 291 274 276 257 70 191 122 167 156 182 204 213 227 6 240 251 277 267 252 201 214 270 313 247 239 276 93 218 122 220 174 231 217 219 208 196 207 218 192 213 207 201 216 184 268 272 232 219 225 221 135 170 181 201 195 187 186 177 178 161 173 165 174
336 334 329 323 317 313 307 303 299 299 293 289 291 288 285 285 283 283 283 287 277 284 290 298 297 264 290 266 96 127 151 147 168 208 221 197 221 202 220 257 253 270 284 293 345 213 277 264 254 252 251 250 218 245 75 201 213 230 214 244 188 206 226 198 211 197 203 132 161 196 245 233 216 218 188 158 177 188 200 190 193 182 182 176 166 178 171 170
342 336 332 327 320 314 310 305 302 298 295 289 287 288 284 280 279 277 278 274 287 286 283 286 280 270 255 292 112 111 199 124 166 198 216 203 215 195 218 220 234 242 195 274 282 283 262 255 260 274 317 262 287 115 223 194 218 224 212 226 252 224 232 191 189 173 224 124 197 216 261 273 202 194 148 168 177 187 194 196 190 179 189 174 169 184 177 166
344 340 335 329 323 317 312 310 305 300 296 292 286 284 284 276 271 268 271 279 270 270 275 281 237 261 227 155 117 111 33 257 205 209 193 195 214 181 216 185 216 212 251 250 261 215 240 251 242 240 217 200 310 208 205 217 193 232 201 217 229 250 282 142 179 173 229 146 208 214 257 259 220 159 141 165 176 189 190 200 192 176 193 185 174 192 194 176
347 342 336 333 326 320 316 312 308 303 297 297 289 283 277 271 264 262 261 265 298 320 253 249 218 237 294 232 101 135 188 205 193 138 196 240 211 227 171 203 160 209 218 209 272 194 227 221 232 301 196 161 249 226 215 212 205 216 233 233 227 216 159 184 176 200 217 206 181 218 252 242 210 146 154 177 183 194 204 193 198 185 184 197 195 189 212 194
347 343 339 334 330 323 319 313 308 305 301 297 298 281 272 266 258 250 253 257 248 231 244 268 279 206 267 70 147 192 168 117 68 187 187 237 234 289 177 197 210 195 224 203 224 233 171 224 189 238 265 252 211 228 234 215 221 207 207 246 266 219 217 222 123 212 200 212 207 207 243 258 319 139 166 184 201 195 218 199 194 196 187 202 211 207 197 216
346 343 341 335 331 327 320 316 312 307 308 303 297 293 268 226 226 213 221 224 229 223 240 251 275 271 226 185 205 146 80 155 197 113 197 173 238 210 224 212 169 240 179 187 176 224 173 221 194 223 189 226 211 223 240 229 221 228 195 228 232 234 259 288 237 156 190 190 246 214 226 251 248 173 176 194 210 209 214 220 198 198 206 207 214 221 217 205
345 342 339 338 330 326 322 316 311 312 312 307 295 257 228 207 213 230 230 176 196 177 207 180 201 227 45 127 69 133 171 77 189 211 173 195 198 231 225 298 239 194 197 219 150 225 166 231 200 245 224 202 212 233 233 286 327 316 297 201 254 257 211 231 133 120 208 203 219 241 244 226 241 236 189 187 209 215 215 220 223 216 211 214 220 225 227 228
344 342 340 337 333 324 322 314 309 307 316 291 200 190 187 199 182 192 209 214 238 322 348 115 217 178 183 142 151 73 110 178 182 212 173 181 197 201 215 209 199 234 234 221 148 236 150 233 211 221 228 207 200 245 354 9 350 356 309 334 272 285 272 47 155 182 98 275 258 255 246 253 245 240 220 192 195 214 225 223 221 225 230 232 226 225 235 237
343 340 339 335 331 326 318 315 308 302 298 281 272 254 333 3 323 100 312 207 267 356 303 243 283 299 29 92 123 199 169 168 241 150 205 157 230 216 192 208 208 215 217 259 280 95 241 244 233 238 47 21 73 347 316 318 320 279 279 265 268 248 252 278 50 93 177 259 264 260 259 253 245 241 243 215 197 210 221 228 230 230 231 233 239 243 241 236
340 339 334 335 328 325 319 315 311 304 285 256 257 272 47 20 357 350 297 219 163 108 196 293 217 221 145 233 43 337 258 194 180 154 132 200 192 231 151 220 202 232 184 170 210 193 217 237 247 119 97 81 82 298 285 272 263 245 257 254 241 253 250 108 174 169 253 218 263 263 260 250 253 249 246 253 230 212 209 224 234 239 239 236 237 239 239 239
338 336 335 329 329 321 322 313 311 310 287 220 242 20 30 354 330 0 281 292 274 142 193 180 183 187 163 162 160 213 245 230 163 162 165 212 201 238 169 213 214 238 144 210 226 214 226 230 145 127 96 163 219 245 242 230 243 253 225 240 251 278 305 218 176 232 201 255 273 266 260 254 240 244 247 240 239 241 228 217 226 237 244 240 237 237 244 246
337 334 331 329 324 324 316 320 303 281 233 292 34 31 11 340 334 291 296 263 172 120 37 110 356 104 128 222 122 244 257 110 256 153 138 203 222 194 248 244 232 225 218 206 234 255 266 96 107 101 147 178 218 214 225 231 237 221 256 269 271 264 236 259 56 223 205 242 254 268 268 263 249 238 232 235 238 238 236 237 232 229 234 244 250 256 257 252
333 332 329 325 324 319 321 318 274 229 348 254 93 34 1 345 326 324 295 250 207 124 169 141 246 85 67 191 188 244 170 332 346 81 142 218 201 236 233 232 265 225 239 202 222 245 229 118 114 186 167 203 231 218 216 249 251 246 206 231 270 308 304 273 229 238 239 244 203 233 251 253 225 225 232 227 215 225 229 234 234 230 226 228 235 238 235 232
330 328 326 322 320 320 310 289 189 317 265 335 22 12 348 329 13 290 278 253 155 115 187 164 262 121 279 175 181 237 256 204 114 141 192 224 325 290 23 232 222 256 224 178 231 253 67 145 215 194 215 220 232 242 218 205 262 256 282 177 219 264 282 256 246 234 240 264 165 197 268 298 78 226 202 220 200 213 226 238 241 233 228 230 229 222 216 213
330 325 321 321 317 321 278 38 19 267 255 94 28 5 340 339 45 242 253 208 202 80 202 84 206 84 274 96 236 149 234 130 150 141 212 151 236 176 259 211 186 259 338 84 243 239 186 158 173 203 224 232 228 225 235 245 240 252 92 175 214 240 236 238 245 243 270 313 158 208 248 276 278 260 226 183 204 211 210 217 225 226 221 224 216 209 205 204
327 323 318 315 313 298 326 308 290 288 32 16 357 345 338 22 237 239 259 263 63 188 138 145 33 130 259 152 229 262 34 143 198 155 221 142 247 180 240 277 224 222 191 205 242 50 177 170 197 199 231 234 228 232 272 193 233 43 263 236 212 240 232 235 235 244 246 249 274 221 211 246 253 254 170 166 209 215 222 209 208 216 215 211 213 209 202 202
326 321 319 309 297 291 288 277 303 346 9 7 337 334 352 2 262 276 280 268 103 222 22 156 123 227 217 179 208 230 222 185 307 122 142 189 236 299 214 231 257 360 175 220 251 135 174 205 189 233 221 223 227 243 145 196 234 165 241 217 275 237 240 244 247 247 255 264 254 252 201 249 251 235 186 198 237 234 219 218 207 207 215 209 204 210 213 201
326 324 315 305 274 211 203 220 248 354 326 349 334 320 304 257 240 241 221 261 126 158 217 72 228 131 221 231 178 171 223 179 288 165 169 222 164 218 266 337 273 220 225 219 250 265 52 158 302 226 225 242 278 23 111 205 232 34 244 252 222 228 230 225 248 266 274 253 240 245 231 219 255 252 263 188 195 220 218 209 207 199 204 206 202 206 206 206
330 327 321 242 289 8 306 221 63 0 341 330 330 300 271 243 255 270 251 64 227 90 191 192 159 213 238 282 171 174 235 164 177 179 179 197 179 219 209 202 238 251 242 224 229 238 204 192 203 221 241 253 251 210 213 235 242 223 230 233 237 222 227 237 238 242 253 249 249 240 231 204 246 243 235 271 97 184 231 255 219 197 198 202 198 206 209 208
339 323 267 243 338 300 305 7 346 340 333 330 307 283 251 270 232 260 27 142 255 123 238 129 186 300 263 212 284 276 220 172 195 196 222 190 183 202 190 243 169 226 218 210 222 201 220 214 208 211 206 232 206 242 202 208 217 223 234 238 240 249 224 240 224 233 234 247 251 254 197 209 236 270 307 340 202 206 215 250 231 199 199 202 208 210 217 216
333 320 262 255 276 282 344 342 322 325 319 295 288 262 262 283 275 18 152 163 57 349 101 277 315 271 290 266 248 206 229 270 136 239 240 268 272 212 199 228 227 261 296 262 284 172 228 224 208 212 194 198 232 230 212 206 203 223 232 229 236 248 252 248 248 240 243 230 235 248 212 241 267 266 250 256 214 202 202 228 245 199 202 204 211 208 209 216
311 256 242 132 283 356 332 300 316 320 302 288 265 268 260 288 302 75 299 260 50 166 267 255 281 264 251 263 199 220 237 199 254 235 211 233 225 249 251 227 253 259 249 261 254 250 267 234 211 206 212 180 228 232 254 255 216 232 237 240 246 257 263 266 266 272 276 302 37 115 231 237 232 217 252 232 239 211 203 209 212 217 215 219 228 239 228 211
323 266 259 216 230 54 9 333 332 313 289 276 270 267 265 257 291 315 274 31 73 326 272 71 265 269 257 226 211 234 298 244 206 259 232 245 237 252 244 259 247 250 259 264 225 273 274 279 305 188 241 184 224 226 243 267 262 230 233 257 257 246 250 269 298 300 302 311 278 211 226 231 222 272 203 261 213 220 216 209 207 201 210 212 217 223 237 239
275 197 216 98 48 25 329 334 279 284 292 285 281 278 273 3 328 3 9 339 306 304 326 291 254 248 249 227 144 251 145 279 169 230 260 244 248 250 220 217 217 204 259 254 297 277 255 254 292 169 175 224 241 235 232 234 257 266 251 237 248 268 267 264 256 257 275 266 261 267 246 233 264 268 262 237 229 235 223 219 211 211 204 206 213 216 220 230
246 182 162 43 47 19 353 305 318 295 277 281 285 275 17 336 17 321 34 323 346 323 295 298 294 280 285 290 252 201 171 217 254 247 259 246 247 236 222 211 265 253 256 284 268 246 277 278 272 244 236 217 238 259 274 248 251 263 251 259 282 278 286 273 269 271 256 260 266 260 256 260 248 263 254 250 233 235 242 228 225 217 213 207 208 214 220 222
251 137 89 40 17 8 332 335 313 283 274 278 266 303 305 275 91 327 9 304 286 257 292 277 287 210 275 275 267 265 164 278 274 205 255 238 267 142 218 213 174 283 336 308 276 272 287 274 261 251 256 265 265 262 257 251 252 258 267 287 270 253 244 232 261 259 259 258 269 245 248 249 253 262 254 257 249 236 233 235 230 224 216 218 213 213 216 223
261 247 191 29 359 354 334 325 285 277 282 267 264 216 153 306 23 337 357 321 279 290 280 279 303 293 303 286 291 292 286 273 297 292 292 217 253 100 268 314 167 272 266 283 252 277 252 270 273 268 267 263 253 238 250 256 233 245 265 265 257 269 262 268 252 264 264 269 262 263 262 264 253 265 259 263 272 251 232 241 243 241 228 219 225 222 216 215
245 247 114 10 4 332 318 286 276 262 256 274 340 323 50 285 94 33 310 359 313 310 283 312 293 288 283 283 300 294 300 291 292 284 275 296 274 162 245 143 285 256 217 289 288 293 276 265 276 278 289 282 245 223 253 261 267 248 236 244 252 248 273 285 279 254 255 262 262 277 273 262 261 267 259 252 263 283 263 224 226 239 242 226 227 228 225 218
288 278 74 10 359 335 297 266 261 284 299 353 225 292 331 336 16 224 161 260 290 251 283 290 299 288 307 305 278 279 279 268 267 271 264 263 250 230 61 339 15 279 285 290 275 265 268 260 265 281 269 255 256 245 261 270 274 271 282 280 271 263 249 243 250 243 249 250 264 268 268 274 274 271 260 275 283 269 267 272 256 239 235 239 232 225 213 223
275 285 64 12 347 317 296 278 205 302 274 300 1 1 32 5 271 280 297 210 226 288 216 258 269 278 280 274 285 291 288 282 281 273 261 276 245 265 94 276 338 331 295 280 294 50 325 305 278 271 265 268 274 280 279 280 275 275 274 270 271 276 280 268 268 268 273 267 274 267 276 266 273 290 293 293 283 273 275 276 275 258 241 237 235 225 219 216
9 28 57 354 346 301 286 276 268 260 271 22 343 262 269 231 263 322 283 264 284 239 277 266 273 279 265 288 297 297 291 284 287 277 288 294 285 69 94 324 51 291 295 264 263 97 353 255 266 263 269 263 262 260 258 258 263 266 255 251 253 257 266 276 278 293 288 284 273 266 258 272 276 283 283 279 271 276 284 274 268 270 266 242 239 235 228 222
346 13 137 60 343 309 282 312 320 333 340 29 307 302 211 297 306 274 262 282 276 303 291 303 294 248 271 272 266 265 282 281 268 263 254 246 259 41 13 343 32 309 288 1 296 50 309 231 269 281 278 274 264 250 247 240 242 248 268 283 299 294 287 291 298 286 270 258 261 264 265 266 286 298 295 299 314 300 285 283 294 285 260 239 241 240 239 235
296 191 285 54 12 328 333 16 331 318 325 304 316 295 276 242 195 302 324 297 300 265 285 262 265 304 267 259 265 275 271 263 274 267 291 307 290 119 108 20 284 262 303 54 355 323 277 281 281 273 276 278 272 262 266 294 297 313 310 292 276 275 277 280 268 268 265 264 263 262 270 275 286 290 294 300 308 307 304 298 286 280 279 267 253 245 242 240
8 323 358 314 18 343 106 8 342 319 310 309 304 286 282 283 204 189 266 267 275 291 272 289 287 263 265 269 263 258 262 247 246 262 260 256 244 235 270 66 321 276 67 103 307 284 270 274 263 258 264 265 271 285 300 318 294 284 289 291 280 258 255 267 276 269 262 269 271 268 275 286 285 287 287 290 290 287 289 293 291 308 317 322 320 289 253 240
299 5 344 338 313 194 357 33 356 306 319 5 286 359 286 275 294 270 131 290 155 265 290 265 278 280 286 289 282 279 275 279 262 263 256 263 259 253 248 265 286 285 329 320 274 267 263 264 254 257 258 263 273 276 283 286 280 278 274 270 273 275 275 266 260 266 279 286 273 273 277 281 284 289 289 291 292 292 288 283 286 278 288 308 299 297 322 293
328 66 348 32 304 327 328 48 358 320 292 247 267 306 278 282 276 256 209 248 310 264 262 249 243 251 268 278 286 277 282 276 274 262 269 260 277 286 279 240 240 252 202 252 252 242 258 259 257 259 260 265 269 276 281 281 278 277 275 274 272 272 270 268 264 267 274 271 275 289 291 285 282 281 284 284 285 283 284 285 285 284 278 273 275 282 287 296
22 345 88 8 270 342 335 339 317 306 292 274 301 284 271 277 271 281 299 302 288 281 254 267 268 269 268 274 274 274 269 276 270 281 277 292 295 304 290 306 284 260 243 233 235 229 243 252 264 262 269 268 266 268 272 276 278 276 272 270 267 265 264 264 267 267 266 267 272 275 278 278 277 277 278 281 283 283 284 285 280 275 269 258 265 267 264 274
27 338 354 275 263 281 262 293 281 272 271 143 251 259 303 285 281 284 255 256 274 278 297 277 262 258 249 250 261 271 278 275 286 285 291 290 278 267 280 282 285 281 277 271 271 241 248 259 260 269 273 271 270 273 272 267 267 267 267 266 263 264 269 270 270 270 274 274 269 268 273 275 272 271 274 277 279 282 282 276 273 268 267 265 255 247 243 243
9 1 339 310 298 263 263 249 258 274 289 231 224 245 239 278 280 304 290 304 279 267 266 279 294 299 301 284 265 263 271 289 301 290 279 259 259 263 271 274 293 301 281 280 263 268 250 270 272 268 270 269 266 266 267 268 268 267 266 261 262 267 267 264 262 263 261 262 268 270 262 263 268 271 274 275 278 278 275 274 274 269 264 263 259 255 251 247
319 152 258 298 287 67 288 260 253 251 256 354 15 332 300 285 295 337 307 287 262 272 316 319 303 294 284 284 284 285 314 309 283 279 278 275 271 269 263 268 260 259 261 258 256 257 253 262 262 263 265 266 271 272 274 282 282 273 257 259 270 262 258 262 263 260 255 254 254 258 258 260 270 277 278 279 279 280 277 276 276 276 274 267 259 252 249 238